Location: Baia de Cri?
(46.1667°N, 22.7167°E)
Time: 09:36:31
(UTC+00:00)

Cosmos 1656 Rocket - Pass Details

Date: 15 January 2026
Orbit: 794 x 844 km, 71.1° (Epoch: 9 February)

Event Time Altitude Azimuth Distance (km) Brightness Sun altitude
Rises 05:21:18 0° 201° (SSW) 3,387 6.9 -8.0°
Reaches altitude 10° 05:23:44 10° 200° (SSW) 2,457 6.2 -7.7°
Maximum altitude 05:29:23 81° 114° (ESE) 858 3.9 -6.8°
Drops below altitude 10° 05:35:03 10° 28° (NNE) 2,463 6.2 -5.9°
Sets 05:37:30 0° 28° (NNE) 3,397 6.9 -5.5°
